User: anonymous   Login
Location: Oshawa
(43.9000°N, 78.8670°W)
Time: 23:02:41
(UTC-04:00)
Language:

Cosmos 2333 Rocket - Orbit

View from above orbital plane
View from above orbital plane
View from above satellite
View from above satellite

Ground track
Ground track

The orbit data is extracted from the following two-line orbital elements,

1 24298U 96051B   18147.18751379 -.00000207 +00000-0 -85565-4 0  9992
2 24298 070.8377 057.0316 0014410 022.7967 337.3790 14.12436844120130
Epoch (UTC): 27 May 2018 04:30:01
Eccentricity: 0.0014410
inclination: 70.8377°
perigee height: 840 km
apogee height: 861 km
right ascension of ascending node: 57.0316°
argument of perigee: 22.7967°
revolutions per day: 14.12436844
mean anomaly at epoch: 337.3790°
orbit number at epoch: 12013

The dashed part of the orbit path shows where the satellite is in the earth's shadow,  

DLR